Date String (YYYY-MM-DD hh:mm:ss) UTC,Instrument flags,Ambient pressure (hPa),Sample flow (lpm),Bypass flow (lpm),Sample temperature (°C),Ambient temperature (°C),ASC tube jacket temperature (°C),LED temperature (°C),Box temperature (°C),Sample RH (%),Span deviation,Mass concentration (μg/m³),Mass concentration (μg/m³),Mass concentration (μg/m³)
DateTimeUTC,F1_M11,P_M11,Q1_M11,Q2_M11,T1_M11,T2_M11,T3_M11,T4_M11,T5_M11,U1_M11,ZSPAN_M11,X0_M11,X2_M11,X1_M11
2022-05-15 22:00:00,,0828.3,5.02,0.00,29.3,26.4,00.0,38.3,31.0,16.4,0000.0,0014.06,0003.65,0002.06
2022-05-15 22:01:00,,0828.3,5.00,0.00,29.3,26.8,00.0,38.3,31.0,16.4,0000.0,0014.45,0003.71,0002.05
2022-05-15 22:02:00,,0828.3,5.00,0.00,29.3,27.2,00.0,38.3,31.1,16.4,0000.0,0014.27,0003.74,0002.05
2022-05-15 22:03:00,,0828.3,5.00,0.00,29.4,27.5,00.0,38.3,31.2,16.9,0000.0,0014.13,0003.69,0002.03
2022-05-15 22:04:00,,0828.3,5.01,0.00,29.4,27.7,00.0,38.3,31.3,17.0,0000.0,0013.86,0003.65,0002.03
2022-05-15 22:05:00,,0828.3,5.00,0.00,29.4,27.9,00.0,38.3,31.3,16.5,0000.0,0014.17,0003.66,0002.03
2022-05-15 22:06:00,,0828.3,4.99,0.00,29.5,28.1,00.0,38.3,31.4,16.0,0000.0,0014.75,0003.68,0002.05
2022-05-15 22:07:00,,0828.3,5.00,0.00,29.5,28.2,00.0,38.3,31.4,15.8,0000.0,0016.53,0003.70,0002.06
2022-05-15 22:08:00,,0828.3,5.01,0.00,29.5,28.3,00.0,38.3,31.4,16.1,0000.0,0017.35,0003.79,0002.08
2022-05-15 22:09:00,,0828.3,5.00,0.00,29.6,28.4,00.0,38.4,31.5,16.0,0000.0,0017.01,0003.80,0002.11
2022-05-15 22:10:00,,0828.3,4.99,0.00,29.6,28.5,00.0,38.4,31.5,16.0,0000.0,0016.34,0003.81,0002.13
2022-05-15 22:11:00,,0828.3,4.99,0.00,29.7,28.6,00.0,38.4,31.6,16.1,0000.0,0015.49,0003.79,0002.14
2022-05-15 22:12:00,,0828.3,5.01,0.00,29.7,28.7,00.0,38.4,31.6,15.8,0000.0,0015.21,0003.72,0002.16
2022-05-15 22:13:00,,0828.3,5.00,0.00,29.7,27.7,00.0,38.5,31.4,15.7,0000.0,0015.74,0003.74,0002.20
2022-05-15 22:14:00,,0828.2,5.01,0.00,29.6,25.4,00.0,38.4,30.9,15.7,0000.0,0016.82,0003.82,0002.23
2022-05-15 22:15:00,,0828.3,5.00,0.00,29.4,25.0,00.0,38.4,30.8,15.9,0000.0,0017.37,0003.86,0002.25
2022-05-15 22:16:00,,0828.2,5.01,0.00,29.4,25.5,00.0,38.3,30.9,15.9,0000.0,0017.34,0003.89,0002.25
2022-05-15 22:17:00,,0828.2,5.00,0.00,29.3,26.0,00.0,38.3,31.0,16.3,0000.0,0016.46,0003.86,0002.24
2022-05-15 22:18:00,,0828.2,4.99,0.00,29.3,26.5,00.0,38.3,31.0,16.5,0000.0,0014.24,0003.86,0002.25
2022-05-15 22:19:00,,0828.2,5.01,0.00,29.3,26.9,00.0,38.3,31.1,16.3,0000.0,0013.92,0003.81,0002.24
2022-05-15 22:20:00,,0828.3,5.00,0.00,29.4,27.3,00.0,38.3,31.2,16.1,0000.0,0014.17,0003.82,0002.23
2022-05-15 22:21:00,,0828.1,4.98,0.00,29.4,27.6,00.0,38.3,31.2,16.3,0000.0,0014.18,0003.82,0002.21
2022-05-15 22:22:00,,0828.2,5.02,0.00,29.4,27.8,00.0,38.3,31.3,16.4,0000.0,0014.40,0003.87,0002.21
2022-05-15 22:23:00,,0828.2,5.00,0.00,29.5,28.0,00.0,38.3,31.3,16.2,0000.0,0013.97,0003.89,0002.21
2022-05-15 22:24:00,,0828.2,5.00,0.00,29.5,28.1,00.0,38.3,31.4,16.1,0000.0,0012.91,0003.90,0002.20
2022-05-15 22:25:00,,0828.2,4.99,0.00,29.5,28.2,00.0,38.3,31.4,15.9,0000.0,0012.27,0003.88,0002.19
2022-05-15 22:26:00,,0828.2,4.99,0.00,29.6,28.3,00.0,38.3,31.5,16.1,0000.0,0011.59,0003.90,0002.19
2022-05-15 22:27:00,,0828.2,5.01,0.00,29.6,28.5,00.0,38.4,31.5,16.1,0000.0,0011.55,0003.93,0002.19
2022-05-15 22:28:00,,0828.2,5.00,0.00,29.6,28.6,00.0,38.4,31.5,15.8,0000.0,0012.15,0003.97,0002.21
2022-05-15 22:29:00,,0828.3,4.99,0.00,29.7,28.6,00.0,38.4,31.6,15.9,0000.0,0012.55,0003.99,0002.23
2022-05-15 22:30:00,,0828.2,5.01,0.00,29.7,28.5,00.0,38.5,31.6,15.8,0000.0,0012.54,0004.01,0002.22
2022-05-15 22:31:00,,0828.2,5.02,0.00,29.6,26.8,00.0,38.4,31.1,15.7,0000.0,0011.20,0003.99,0002.21
2022-05-15 22:32:00,,0828.2,4.99,0.00,29.5,26.1,00.0,38.4,31.0,15.9,0000.0,0011.12,0004.04,0002.23
2022-05-15 22:33:00,,0828.2,4.99,0.00,29.5,26.4,00.0,38.4,31.1,15.8,0000.0,0011.15,0004.05,0002.24
2022-05-15 22:34:00,,0828.2,5.02,0.00,29.4,26.8,00.0,38.4,31.1,15.8,0000.0,0011.38,0004.04,0002.27
2022-05-15 22:35:00,,0828.2,4.99,0.00,29.5,27.2,00.0,38.4,31.2,15.8,0000.0,0011.34,0004.07,0002.30
2022-05-15 22:36:00,,0828.2,5.00,0.00,29.5,27.5,00.0,38.4,31.3,16.0,0000.0,0010.97,0004.09,0002.32
2022-05-15 22:37:00,,0828.2,5.00,0.00,29.5,27.8,00.0,38.4,31.3,15.7,0000.0,0011.10,0004.09,0002.32
2022-05-15 22:38:00,,0828.2,5.01,0.00,29.5,28.0,00.0,38.4,31.4,15.8,0000.0,0011.00,0004.02,0002.34
2022-05-15 22:39:00,,0828.2,5.00,0.00,29.6,28.1,00.0,38.4,31.4,15.8,0000.0,0010.57,0003.99,0002.34
2022-05-15 22:40:00,,0828.2,4.99,0.00,29.6,28.3,00.0,38.4,31.5,16.4,0000.0,0011.16,0003.96,0002.34
2022-05-15 22:41:00,,0828.2,5.00,0.00,29.6,28.5,00.0,38.4,31.5,15.8,0000.0,0011.75,0003.98,0002.35
2022-05-15 22:42:00,,0828.1,5.01,0.00,29.7,28.6,00.0,38.5,31.6,15.7,0000.0,0012.31,0004.03,0002.35
2022-05-15 22:43:00,,0828.1,5.01,0.00,29.7,27.3,00.0,38.5,31.3,15.8,0000.0,0012.04,0003.94,0002.35
2022-05-15 22:44:00,,0828.2,4.99,0.00,29.5,25.3,00.0,38.4,30.8,15.8,0000.0,0011.79,0003.92,0002.34
2022-05-15 22:45:00,,0828.1,5.00,0.00,29.4,25.1,00.0,38.4,30.7,15.9,0000.0,0011.89,0003.95,0002.32
2022-05-15 22:46:00,,0828.1,5.00,0.00,29.3,25.6,00.0,38.4,30.8,16.0,0000.0,0012.31,0003.91,0002.29
2022-05-15 22:47:00,,0828.1,4.99,0.00,29.3,26.1,00.0,38.3,30.9,15.8,0000.0,0012.61,0003.88,0002.27
2022-05-15 22:48:00,,0828.1,5.00,0.00,29.3,26.6,00.0,38.3,31.0,16.1,0000.0,0013.47,0003.86,0002.26
2022-05-15 22:49:00,,0828.1,5.01,0.00,29.3,27.0,00.0,38.3,31.1,16.5,0000.0,0014.00,0003.87,0002.26
2022-05-15 22:50:00,,0828.1,5.01,0.00,29.3,27.3,00.0,38.3,31.2,16.1,0000.0,0014.49,0003.88,0002.25
2022-05-15 22:51:00,,0828.1,5.00,0.00,29.4,27.6,00.0,38.3,31.2,16.1,0000.0,0013.78,0003.89,0002.23
2022-05-15 22:52:00,,0828.2,5.00,0.00,29.4,27.9,00.0,38.3,31.3,16.3,0000.0,0013.18,0003.87,0002.25
2022-05-15 22:53:00,,0828.1,4.99,0.00,29.5,28.0,00.0,38.3,31.3,15.9,0000.0,0012.87,0003.87,0002.26
2022-05-15 22:54:00,,0828.1,4.99,0.00,29.5,28.2,00.0,38.3,31.4,15.7,0000.0,0014.18,0003.92,0002.26
2022-05-15 22:55:00,,0828.2,5.01,0.00,29.5,28.3,00.0,38.3,31.4,15.8,0000.0,0015.11,0003.89,0002.27
2022-05-15 22:56:00,,0828.1,4.99,0.00,29.6,28.4,00.0,38.3,31.5,16.0,0000.0,0014.77,0003.86,0002.26
2022-05-15 22:57:00,,0828.2,4.99,0.00,29.6,28.6,00.0,38.4,31.5,15.8,0000.0,0014.37,0003.90,0002.28
2022-05-15 22:58:00,,0828.1,5.00,0.00,29.7,28.6,00.0,38.4,31.6,15.4,0000.0,0014.08,0003.90,0002.30
2022-05-15 22:59:00,,0828.1,5.00,0.00,29.7,28.7,00.0,38.4,31.6,15.4,0000.0,0013.40,0003.90,0002.31
